SL-3 R/B

Satellite information

Favourite Embed

Satellite Type and Status

ROCKET BODYIN ORBIT

Key statistics

Satellite SL-3 R/B at a glance.

Uptime

19607

Days in orbit

Revolutions

≈ 14.1

Per day

Orbit

LEO

Low Earth Orbit

Inclination

81.2

Latest

Satellite identification and parameters

Extended collection of information and parameters for SL-3 R/B.

Object identification

Identified? True

Debris? False

Object name: SL-3 R/B

International designator: 1971-120B

Object number (NORAD): 5732

Object ID (CCSDS): 5732

Country: COMMONWEALTH OF INDEPENDENT STATES (CIS)

Current information (Y/N): Y

RCS size: LARGE

Orbital parameters

Period: 102.391 minutes

Inclination: 81.2493 deg

SMA: 7249.949 km

Apoapsis: 908.261 km

Periapsis: 835.367 km

RAAN: 105.0595 deg

Eccentricy: 0.00502723

Argument of periapsis: 248.1126 deg

Mean anomaly: 111.4693 deg

Mean motion: 14.06372364 rev/day

Mean motion (dot): 0.00000082 rev/day2

B* drag term: 0.000041975936 1/REarth

Two-line elements (TLE)

Creation date: Sept. 3, 2025, 2:21 a.m.

Reference frame: TEME

Reference center: EARTH

Epoch: Sept. 2, 2025, 8:09 p.m. UTC

TLE line 0: 0 SL-3 R/B

TLE line 1: 1 05732U 71120B 25245.83970173 .00000082 00000-0 41976-4 0 9995

TLE line 2: 2 05732 81.2493 105.0595 0050272 248.1126 111.4693 14.06372364752310

Live tracking on map

Real-time ground track for satellite SL-3 R/B.

In-orbit conjunctions

A list of the most updated potential collisions computed for object SL-3 R/B.

Target Orbit TCA Probability of collision Miss distance Type
COSMOS 1275 DEB LEO 2024-12-22 19:02:45 0.0004117569 157.0 (m) DEBRIS
CZ-6A DEB SSO 2024-09-14 15:35:24 0.000155902 371.0 (m) DEBRIS
COSMOS 1275 DEB LEO 2024-06-16 18:40:27 0.0003978792 236.0 (m) DEBRIS

Associated space launch

The Meteor-1 series was the first series of Soviet meteorological satellites.

SL-3 R/B was lifted into orbit during the mission ‘Vostok 8A92M | Meteor-1 10 (18L)’, on board a Vostok 8A92M space rocket.

The launch took place on Dec. 29, 1971, 10:50 a.m. from 41/1.

For more information about the launch, click the button.

Launch to space Vostok 8A92M | Meteor-1 10 (18L)
Vostok 8A92M | Meteor-1 10 (18L)

Agency: N/A

Status: Launch Successful

Launch date: Dec. 29, 1971, 10:50 a.m. UTC

Rocket: Vostok 8A92M

Launch pad: 41/1

Location: Plesetsk Cosmodrome, Russian Federation

...

Latest news about this satellite

There are no fresh news available about this satellite. Check back as we update our databases every day.


Newsletter sign-up

Weekly statistics, charts and insights to help you stay on top of the space industry.